Theta_e
317 317 321 319 318 321 322 323 320 319 318 312 312 314 314 316 317 318 317 317 317 317 316 315 314 313 316 316 317 317 317 317 318 316 316 323 322 322 322 322 322 322 332 338 341 343 342 344 345 343 344 344 344 344 344 343 342 342 341 340 338 337 337 337 337 338 339 339 339 338 338 339 339 339 339 339 339 339 339 339 340 340 339 338 334 332 331 329 328 328 328 327 327 326 326 328 330
318 319 321 319 318 322 323 322 318 314 314 310 312 315 313 316 316 317 317 317 318 316 313 313 314 314 314 315 316 317 317 317 317 317 317 320 319 324 324 321 323 323 332 338 341 344 344 344 344 343 344 344 344 344 344 343 342 342 341 341 338 336 337 337 337 337 338 337 338 337 337 338 338 338 338 339 339 339 339 339 339 339 339 339 337 335 333 331 331 331 330 329 328 327 326 326 326
319 321 320 319 320 323 323 321 316 311 310 309 311 315 315 316 316 316 316 316 316 313 312 313 314 315 315 317 317 318 319 317 316 316 317 321 323 325 323 322 324 324 331 338 341 343 344 344 343 343 343 344 344 344 344 343 342 342 341 341 339 336 337 338 337 336 336 337 337 337 337 338 338 338 338 338 338 338 338 338 339 339 339 339 339 339 335 334 333 331 329 328 328 328 326 325 323
319 321 319 320 323 322 322 320 317 311 309 309 310 315 316 316 316 316 316 314 313 312 313 315 316 315 316 318 318 318 318 318 317 317 319 325 324 324 322 323 324 323 330 337 341 343 344 344 343 343 343 344 343 344 343 343 343 342 341 341 339 335 337 338 337 336 336 337 336 335 336 336 336 336 336 336 337 337 337 338 338 339 339 339 339 339 337 334 331 328 327 328 327 326 324 321 318
318 319 318 320 324 321 322 320 318 313 311 311 310 315 317 316 316 315 315 314 312 312 314 316 317 316 315 317 317 318 319 319 318 317 320 325 322 322 322 323 325 323 329 337 341 343 343 343 343 342 343 343 343 344 343 342 342 342 341 341 339 335 336 338 337 336 335 336 335 335 335 334 335 334 334 333 334 336 336 337 338 339 338 339 339 338 335 332 330 329 329 329 327 326 322 320 317
317 319 318 319 321 319 320 316 314 313 314 316 314 315 316 315 315 314 315 315 313 312 313 315 317 316 316 316 316 318 318 317 320 320 320 324 321 322 323 323 325 323 327 336 341 342 342 342 343 342 342 342 342 343 343 343 342 342 341 340 339 336 336 337 338 336 334 335 334 335 336 335 337 336 335 332 332 334 336 337 337 338 338 338 338 336 334 332 332 331 330 329 328 326 323 319 318
318 320 321 321 320 320 319 314 313 315 315 316 316 316 315 315 312 312 316 315 314 314 313 314 314 316 316 315 315 316 315 315 319 320 320 322 322 322 323 323 324 323 327 333 339 342 342 342 342 343 342 342 342 342 343 343 342 342 341 340 339 336 336 338 337 335 334 336 334 335 336 336 338 338 338 336 335 334 335 337 337 338 338 337 337 335 333 333 334 332 331 330 328 326 323 319 318
318 319 321 322 322 322 320 316 316 317 316 315 315 316 315 315 313 313 316 315 315 315 314 315 314 315 315 313 316 316 315 316 316 317 322 324 323 324 324 324 325 324 326 330 336 340 341 341 342 343 342 342 341 342 342 342 342 341 341 340 339 337 336 337 337 334 334 336 334 335 336 336 337 337 338 338 336 335 335 337 337 338 338 337 335 334 333 334 334 332 330 329 328 324 321 319 317
318 318 321 322 321 320 318 317 317 318 317 315 315 315 315 314 313 314 315 315 314 314 314 314 314 315 315 315 316 317 317 318 318 320 325 326 324 325 325 326 327 325 326 329 333 337 340 340 340 342 342 341 341 341 340 340 340 341 341 340 339 337 335 336 336 334 334 335 334 335 336 336 337 337 337 338 337 336 336 337 337 338 337 336 334 333 333 333 332 330 330 329 326 323 320 318 315
320 318 321 322 319 316 314 316 317 317 317 315 314 314 314 313 313 314 315 315 313 314 314 312 314 315 315 316 316 317 316 316 320 322 324 325 325 325 326 326 327 328 328 330 332 336 339 339 339 341 342 341 341 341 339 339 340 340 340 340 340 337 335 335 335 334 334 334 334 336 336 335 336 336 337 337 338 337 336 337 337 337 336 336 334 334 333 332 331 329 329 327 324 321 317 316 312
319 318 319 319 315 313 312 314 316 317 316 315 314 314 313 312 312 314 314 314 313 313 314 312 315 316 315 316 316 315 314 313 316 319 322 325 325 325 326 326 327 330 330 332 334 336 338 338 339 340 341 341 340 340 339 339 339 339 339 339 340 338 335 335 336 334 333 334 334 336 336 335 336 336 337 337 337 337 336 337 336 336 336 336 335 333 332 330 330 329 328 326 322 319 314 313 309
318 318 318 315 313 313 314 315 315 317 316 315 315 313 311 311 313 314 314 314 314 314 314 314 314 315 315 316 316 314 313 311 313 317 321 323 324 325 326 327 328 329 331 332 334 335 337 338 338 339 340 340 340 339 338 339 339 338 338 338 339 339 337 335 335 334 333 334 333 334 336 335 337 337 337 337 337 337 337 337 336 336 336 335 334 332 330 330 329 328 327 325 322 317 311 310 306
319 318 316 313 315 316 315 315 315 317 317 315 315 312 309 311 314 314 314 314 314 315 314 313 313 314 315 315 315 314 313 310 312 317 319 322 324 324 326 328 329 329 330 330 333 334 336 337 338 338 339 339 339 339 338 338 338 338 337 337 338 339 338 336 334 334 333 334 333 333 335 335 336 337 337 337 337 337 337 337 336 335 335 334 332 331 330 330 329 327 325 324 323 317 310 307 302
319 318 316 316 316 317 315 315 315 316 315 315 313 311 310 312 313 312 313 315 314 314 313 311 312 314 314 314 315 314 312 308 311 317 319 322 324 325 327 328 328 329 330 331 332 334 335 336 337 337 337 338 338 338 338 338 338 337 337 337 337 339 338 337 335 334 333 333 334 332 333 335 336 336 337 337 336 337 336 336 336 334 334 333 332 331 331 330 327 325 324 324 323 318 310 304 299
318 317 318 317 315 316 315 316 316 316 315 315 312 310 312 311 310 311 313 314 314 312 310 311 311 313 314 314 315 312 309 308 312 318 321 323 324 326 327 327 328 328 330 332 333 333 333 335 336 337 337 337 339 338 338 338 338 337 337 338 337 338 337 337 336 336 335 333 333 333 332 333 335 336 336 336 336 336 335 335 335 334 333 332 331 331 330 329 325 323 324 325 323 319 312 303 298
316 316 318 315 314 315 315 316 317 316 315 315 311 309 313 312 309 311 311 311 313 312 311 313 311 312 313 312 312 309 307 309 313 318 320 321 323 324 324 323 325 326 328 330 332 333 333 334 334 336 336 337 338 338 338 338 338 337 337 338 337 337 337 337 337 336 336 334 332 332 332 332 333 335 336 336 336 336 335 335 335 334 333 332 331 331 330 328 323 323 325 325 323 321 315 306 298
315 317 316 312 313 314 314 317 317 316 315 315 312 311 315 315 311 310 309 308 312 312 311 313 311 311 310 309 308 307 308 309 311 314 315 316 318 319 318 317 318 321 322 325 329 331 332 334 334 335 335 336 337 337 338 338 338 338 337 337 337 337 336 336 336 337 337 335 333 331 331 331 333 334 335 335 336 336 334 333 334 333 333 331 331 330 329 327 323 322 325 325 323 322 319 311 301
316 317 314 311 313 313 313 316 316 316 316 315 313 312 314 315 313 312 310 311 312 312 313 312 311 309 309 308 308 308 309 309 310 312 313 314 314 315 316 314 315 315 315 318 322 326 329 332 334 335 335 336 336 336 337 337 338 337 336 336 336 336 336 335 335 336 336 336 334 332 331 331 332 333 334 334 335 335 334 333 332 332 332 330 330 330 329 326 323 322 324 325 323 322 321 317 307
316 316 314 313 315 313 312 314 315 315 315 315 314 311 312 314 313 312 313 314 313 313 314 313 311 309 310 310 309 309 309 310 311 312 313 313 313 314 314 314 314 314 314 314 316 320 324 328 331 333 335 335 335 336 336 337 337 337 336 335 336 336 336 335 335 336 336 336 335 334 333 333 333 333 333 333 334 334 334 333 332 331 330 330 330 330 328 325 323 322 323 324 323 322 321 320 315
316 316 315 315 315 313 312 313 314 314 313 315 314 310 311 312 311 311 313 314 313 314 313 313 312 311 311 310 309 309 309 310 310 311 312 312 312 312 313 313 313 314 314 314 314 314 317 321 326 329 332 335 335 335 335 336 336 337 336 336 336 336 335 335 335 336 335 335 336 335 335 334 334 334 334 333 333 334 334 333 333 331 330 330 329 329 327 324 324 323 322 323 322 322 322 321 319
316 316 316 316 313 314 313 312 313 312 311 314 313 310 312 312 310 311 312 314 314 313 310 310 311 311 310 309 309 309 309 310 310 310 311 311 312 311 311 311 312 312 313 315 315 314 313 314 319 324 328 332 335 335 334 335 336 336 335 335 335 335 335 334 335 336 336 336 335 335 336 334 334 334 334 333 333 333 333 333 333 333 332 331 330 329 328 326 325 325 322 322 322 322 321 321 320
316 315 315 315 313 315 315 312 312 311 310 312 312 312 312 310 309 311 312 313 313 311 308 307 309 309 308 308 308 308 309 309 309 309 310 310 311 311 311 311 311 312 313 315 315 315 314 312 313 317 325 330 332 333 334 334 335 336 335 335 334 335 336 335 334 335 336 337 336 335 336 336 335 334 334 334 334 334 333 333 333 333 332 332 331 330 329 327 327 325 323 322 323 321 320 321 320
316 315 313 314 313 315 314 312 312 310 310 312 312 311 310 311 311 310 310 310 310 307 307 308 307 307 307 307 308 308 308 308 308 308 308 308 309 309 309 309 310 311 313 315 315 315 315 314 312 312 320 328 330 332 333 334 335 336 335 334 334 335 336 334 333 334 335 336 336 336 336 336 336 335 334 334 334 334 333 332 332 332 332 331 331 330 329 328 327 325 324 323 323 321 320 320 320
315 315 314 313 312 313 314 312 311 310 311 312 310 309 310 312 311 309 308 307 306 307 307 307 307 307 307 307 307 307 307 307 307 306 307 307 307 308 308 308 309 310 312 314 315 315 315 315 312 310 318 326 329 330 332 333 334 335 334 332 331 332 333 333 333 334 334 333 333 334 334 336 336 335 334 334 333 333 333 332 332 332 331 331 330 329 328 328 327 325 324 323 323 321 319 319 319
314 315 314 312 311 312 312 310 310 309 310 309 308 310 311 310 310 309 307 306 306 307 307 306 307 307 306 306 306 307 307 306 307 306 307 306 306 307 307 307 308 309 312 314 315 316 316 317 315 313 319 326 328 330 331 333 333 334 335 333 331 331 331 332 333 333 332 332 331 331 331 334 335 334 334 334 333 333 333 333 332 332 331 330 329 328 327 326 325 324 323 323 322 321 320 320 319
314 314 313 312 312 311 310 310 310 309 309 308 309 312 311 307 308 308 306 306 307 306 306 306 306 306 305 304 305 306 306 305 306 306 306 306 306 307 307 307 308 310 312 315 317 317 318 318 318 318 321 325 328 329 330 332 332 332 332 333 333 333 333 333 333 332 332 332 331 331 331 331 333 334 334 333 333 333 333 332 332 331 329 327 326 325 325 324 324 323 323 323 322 321 320 320 318
312 312 311 312 311 310 309 310 310 309 308 308 310 313 310 306 309 309 306 305 306 306 306 305 306 305 304 304 304 305 305 304 304 305 306 306 306 306 305 306 309 311 314 317 318 319 319 319 320 320 322 326 328 329 329 331 332 331 331 332 332 331 332 333 332 331 331 331 329 330 330 330 332 332 333 332 332 332 331 330 330 329 327 325 325 325 324 324 323 322 323 322 321 320 320 319 318
310 310 311 312 311 311 310 310 309 309 309 307 309 311 309 308 309 309 306 305 306 307 307 305 305 305 304 304 304 305 305 304 304 304 305 305 304 304 304 304 307 311 313 315 318 320 321 321 323 323 324 327 328 329 330 331 331 331 331 332 330 329 329 329 329 328 328 328 328 328 329 330 331 331 331 331 330 330 329 328 328 328 327 326 325 325 324 324 323 322 322 322 321 320 319 318 317
309 309 313 314 313 314 311 309 308 308 309 306 308 311 310 310 309 307 306 306 307 307 307 306 305 305 304 304 304 304 304 303 303 303 303 303 303 302 303 302 304 309 312 315 318 320 323 324 324 326 327 327 328 329 330 330 330 330 329 328 327 327 327 326 326 327 326 326 326 327 328 328 329 329 329 329 328 328 326 326 326 327 326 325 325 324 324 323 322 322 322 321 320 319 318 317 317
310 310 312 315 316 315 311 309 308 310 309 305 308 314 313 310 309 307 305 305 307 308 307 306 305 304 304 304 303 303 303 303 302 302 302 301 302 302 302 303 305 308 311 316 318 319 322 324 324 326 328 328 327 328 328 327 327 327 327 326 325 325 325 325 324 325 325 325 325 326 327 327 327 327 327 327 326 326 325 324 325 325 324 323 324 324 323 322 321 321 321 320 319 317 317 317 316
312 312 312 315 316 315 312 309 310 312 309 305 310 315 314 311 309 308 305 304 307 309 307 305 305 304 304 304 303 303 302 302 301 301 301 300 301 301 301 303 306 308 311 315 317 319 321 322 323 324 326 327 327 326 325 325 325 325 324 324 324 324 324 323 323 323 323 324 324 324 325 325 325 324 325 325 325 325 324 323 323 323 323 322 323 323 322 322 321 321 320 320 318 318 317 317 316
313 313 315 316 315 315 315 309 309 312 309 307 311 315 314 311 309 308 305 305 307 308 307 305 304 304 303 303 303 303 302 302 302 300 300 300 300 300 300 302 305 308 310 313 315 318 320 320 321 322 324 324 324 324 324 324 323 323 322 322 322 322 322 321 320 321 321 321 321 321 321 322 322 322 322 323 323 323 322 322 321 322 321 322 322 321 321 321 320 320 320 319 318 318 317 316 315
314 314 317 318 316 316 316 310 308 310 310 310 312 314 315 312 309 307 305 306 307 307 306 304 304 303 303 303 302 302 302 302 302 300 299 299 299 299 300 301 304 306 309 311 314 317 319 320 320 321 321 321 321 322 322 321 320 320 320 319 320 319 319 319 317 318 318 318 318 318 318 318 319 319 319 319 320 320 320 319 319 319 320 320 320 320 319 319 318 318 317 317 316 316 315 314 313
316 315 316 317 315 315 315 313 310 309 311 312 312 313 315 312 308 307 305 305 307 308 306 304 304 303 303 303 302 302 302 301 300 299 298 298 299 298 299 302 304 307 308 310 312 314 316 317 318 319 319 319 319 319 319 318 318 318 317 316 316 315 315 315 314 315 315 315 315 315 315 315 316 317 316 316 317 317 317 317 316 316 316 316 316 316 316 315 315 314 314 313 313 312 311 310 309
318 317 316 316 314 314 315 314 312 310 313 314 313 314 315 313 309 307 305 304 307 307 305 304 304 303 303 302 302 301 301 300 299 298 297 297 298 298 299 302 305 307 307 309 311 312 314 315 314 315 317 317 316 316 316 315 314 314 312 311 311 310 310 310 310 310 310 310 311 311 312 312 313 314 313 313 314 314 314 314 313 313 313 312 312 312 311 311 311 310 310 309 308 308 307 305 305
317 317 317 316 315 314 314 314 311 310 313 315 315 315 316 315 311 308 306 305 306 306 304 304 303 303 303 302 302 301 300 299 298 297 297 297 297 297 298 300 302 305 307 309 311 313 313 314 313 313 313 313 313 313 313 312 311 310 308 308 307 305 305 306 306 306 305 306 306 306 307 307 308 309 309 310 310 310 310 310 309 309 309 308 308 308 307 306 307 306 306 305 306 306 303 301 302
315 316 316 316 316 316 314 313 310 309 313 315 314 315 315 315 312 308 306 305 306 305 305 304 303 303 302 302 301 301 300 299 298 297 297 297 296 297 298 299 300 303 306 308 310 311 311 311 313 312 310 311 312 311 311 309 308 307 306 306 303 301 302 303 303 302 302 302 303 303 303 303 304 304 305 305 306 306 305 306 305 305 305 305 304 303 303 303 303 304 303 303 304 303 301 300 301
313 315 316 315 316 316 314 312 310 309 313 315 313 313 315 315 311 307 306 306 306 305 305 304 303 302 302 301 301 300 299 298 299 298 297 297 296 296 297 298 299 301 303 305 307 308 309 311 312 310 310 312 312 311 310 309 306 305 305 304 302 300 300 301 300 300 300 300 300 301 301 301 301 301 301 302 302 302 302 302 302 301 301 301 301 300 300 300 301 301 302 302 303 302 300 299 300
313 314 315 316 317 317 314 312 310 309 312 315 313 313 316 314 309 306 306 306 305 303 303 303 302 302 301 300 300 299 299 299 298 298 297 296 296 296 296 297 298 299 300 301 303 305 308 310 311 310 311 311 311 311 310 308 306 305 304 301 300 299 298 299 298 298 299 299 299 299 299 299 299 299 299 300 300 299 299 299 299 299 299 299 299 299 298 298 298 299 299 300 301 301 300 299 298
314 314 315 317 317 318 318 314 310 309 310 313 313 314 317 313 308 306 304 303 303 301 301 301 301 301 300 299 299 299 299 299 298 297 297 296 296 296 296 296 297 298 299 300 301 303 306 307 308 309 310 309 308 308 307 306 304 303 301 299 299 297 296 296 297 296 297 297 298 298 298 298 298 298 298 298 299 298 298 298 298 298 298 298 298 298 297 297 297 297 297 298 299 300 300 299 298
315 314 315 318 317 317 318 315 311 311 310 311 313 316 318 315 311 309 304 302 302 301 300 300 300 299 298 298 298 297 297 297 297 297 297 296 296 295 295 295 296 297 298 298 299 301 303 304 305 306 306 306 305 304 303 302 301 300 299 298 296 295 294 293 293 293 293 294 294 294 295 296 296 296 296 296 297 296 296 296 296 296 296 296 295 295 295 295 295 296 296 296 297 299 299 299 298
317 316 315 316 317 316 316 315 313 316 317 312 312 318 318 314 313 311 306 304 303 302 301 301 300 299 298 298 298 297 296 296 296 296 296 296 295 295 294 294 295 295 296 297 298 299 300 302 303 303 303 303 302 302 301 301 300 298 297 296 294 293 292 291 290 290 289 289 289 290 291 291 291 292 292 292 292 292 292 292 291 291 291 291 291 291 291 291 292 292 293 293 294 296 298 298 297
319 318 315 314 315 316 315 315 316 318 320 313 310 316 318 315 315 312 307 306 305 303 302 302 301 299 299 299 298 297 296 296 296 295 295 295 295 295 294 293 293 293 294 295 296 298 299 300 301 301 301 301 301 301 301 300 300 298 297 295 292 291 290 289 288 288 288 287 287 287 288 288 288 288 288 288 288 288 288 288 288 288 288 288 288 288 288 287 288 288 288 289 289 291 294 295 295
320 316 315 314 314 315 315 316 317 318 318 314 311 315 317 317 316 310 307 308 306 304 304 303 301 300 299 299 298 297 296 296 296 295 295 295 294 294 293 292 292 292 292 293 294 296 298 299 300 300 300 300 299 300 300 299 298 297 296 293 290 289 289 288 288 287 287 287 287 287 287 287 287 287 287 287 287 287 287 287 287 287 287 287 287 287 287 287 287 287 287 287 287 287 289 291 291
318 312 311 312 313 315 315 316 316 315 316 317 316 315 316 318 316 309 307 310 310 307 305 304 303 301 300 299 298 297 296 295 295 295 295 294 293 293 292 291 291 291 291 292 293 295 297 298 298 299 298 298 297 298 298 297 296 295 293 291 289 288 288 288 287 287 287 287 287 287 286 286 286 287 287 287 287 287 286 286 286 286 286 286 286 286 286 286 286 286 286 286 286 286 286 287 288
313 309 310 311 312 313 314 315 316 314 315 320 318 316 316 318 317 313 311 312 313 310 307 306 304 301 300 299 298 297 295 294 295 295 294 293 292 291 291 290 290 290 290 291 292 293 294 295 296 296 296 295 295 296 296 295 294 292 290 289 288 288 288 288 288 287 287 287 287 286 286 286 286 286 286 286 286 286 286 286 286 286 285 285 285 285 285 285 285 285 285 285 285 285 285 285 285
310 311 313 313 312 312 312 313 314 315 318 318 316 315 316 317 318 317 315 313 313 312 308 306 304 301 301 300 298 297 295 295 294 294 293 292 291 290 290 290 289 289 289 290 291 291 292 292 294 295 294 293 294 293 293 292 291 290 289 288 288 288 288 288 288 288 287 287 287 287 286 286 286 286 286 286 286 286 285 285 285 285 285 285 285 285 285 284 284 284 285 285 285 285 284 284 284
311 314 315 316 315 313 313 313 314 318 320 315 309 310 314 317 317 315 314 311 309 310 310 307 304 302 301 300 298 296 295 295 294 294 293 292 291 290 290 290 289 289 289 289 290 290 291 291 292 293 292 291 291 291 290 290 289 289 288 288 288 288 288 288 288 288 287 287 287 287 287 286 286 286 286 285 285 285 285 285 285 285 284 284 284 284 284 284 284 284 284 284 284 284 284 284 284
312 315 315 320 319 316 317 317 315 318 317 310 307 309 314 316 316 314 313 310 308 308 308 307 305 303 302 300 298 296 295 295 294 293 293 292 291 291 290 290 289 289 289 289 289 289 290 290 290 291 290 289 289 289 289 289 288 288 288 288 288 288 288 288 288 288 287 287 287 287 287 286 286 285 285 285 285 285 285 285 285 284 284 284 284 284 284 284 284 284 284 284 284 284 284 284 284
313 316 317 321 320 318 320 317 314 316 314 307 305 309 313 315 314 313 311 308 305 304 304 305 305 304 303 301 298 296 295 294 294 293 293 293 292 291 290 290 290 289 289 288 288 289 289 289 289 289 289 288 289 289 288 288 288 288 288 288 288 288 288 288 288 288 287 287 287 287 287 286 286 286 285 285 285 285 285 284 284 284 284 284 284 284 284 284 284 284 284 284 284 284 284 284 283
314 315 316 318 318 319 321 318 317 317 313 307 306 310 315 315 312 307 304 302 300 300 300 301 303 303 302 300 297 296 295 294 294 293 293 293 292 291 290 290 290 289 288 288 288 288 288 289 289 289 288 288 288 288 288 288 288 288 288 288 288 288 288 288 288 288 287 287 287 287 287 286 286 286 286 285 285 285 285 284 284 284 283 283 283 283 284 283 284 284 283 283 284 283 283 283 283
313 312 314 316 316 316 315 313 313 313 313 311 309 311 313 312 307 301 300 300 300 300 300 300 301 302 301 299 297 296 295 295 294 293 293 293 291 291 290 290 289 289 288 288 288 288 288 288 288 288 288 288 288 288 288 288 288 288 288 288 288 288 288 288 288 288 288 287 287 287 287 286 286 286 286 286 285 285 285 284 284 283 283 283 283 283 283 283 283 283 283 283 283 283 283 283 283
312 312 315 314 313 314 313 311 308 309 315 316 312 312 312 310 308 303 301 303 302 301 301 301 302 301 300 300 298 297 296 295 294 294 293 292 291 291 290 290 289 289 288 288 288 288 288 288 288 288 288 288 288 288 288 288 288 288 288 288 289 289 289 288 288 288 288 288 288 288 287 287 287 286 286 286 285 285 284 284 283 283 283 282 282 282 282 283 282 282 282 282 282 282 282 282 282
313 314 316 313 312 313 313 315 313 312 317 317 313 315 314 313 313 307 303 305 305 303 301 301 301 301 300 300 299 297 297 296 295 294 294 293 291 291 290 290 289 289 288 288 288 288 288 288 288 288 288 288 288 288 288 289 288 288 288 289 289 289 289 289 289 289 288 288 288 288 287 287 286 286 286 285 285 284 284 284 283 282 282 282 282 282 282 282 282 282 282 282 282 282 282 282 282
311 313 314 313 316 316 314 316 317 317 319 316 312 312 312 314 314 310 307 309 308 304 302 301 301 301 301 301 300 298 297 296 294 294 294 293 292 291 290 290 289 288 288 288 287 288 288 288 288 288 288 288 288 288 288 289 289 289 289 289 289 289 289 288 288 288 288 288 287 287 286 286 285 285 285 285 284 284 283 283 282 282 282 282 282 282 282 282 282 282 282 281 281 281 281 281 281
308 309 311 312 314 316 315 315 316 318 318 317 315 313 312 314 313 311 311 311 309 306 303 302 302 302 301 301 301 299 297 296 295 294 294 293 292 291 290 290 289 288 288 288 287 287 288 288 288 288 288 288 288 288 288 288 289 289 289 289 288 288 288 288 288 288 288 288 287 287 286 285 285 285 284 284 284 283 283 282 282 281 281 281 281 281 282 282 281 281 281 281 281 281 280 280 280
310 311 312 312 311 311 313 313 312 315 317 317 316 316 314 312 311 312 312 311 310 308 306 305 304 302 302 301 301 300 298 297 296 294 294 294 292 291 290 290 289 288 288 287 287 287 288 288 288 288 288 288 288 288 288 288 288 288 288 288 288 288 288 288 288 288 288 287 287 286 285 285 284 284 284 283 283 282 282 282 281 281 281 281 281 281 281 281 281 281 281 281 281 280 280 280 280
313 313 313 313 313 312 315 316 312 311 314 315 314 316 315 310 308 309 310 309 308 308 308 307 304 303 302 302 302 301 299 297 296 294 294 294 292 292 291 290 289 288 288 287 287 288 288 288 288 288 288 288 288 288 288 288 288 288 288 288 288 287 287 287 287 287 287 286 286 285 285 284 284 284 283 282 282 282 281 281 281 281 281 281 281 281 281 281 281 280 280 280 280 280 280 280 280
Wind_Speed
8 7 7 8 6 3 0 2 1 2 0 4 3 1 3 1 2 1 2 2 1 2 1 2 1 1 2 3 4 4 4 3 5 4 4 3 2 4 8 6 1 10 18 27 22 18 21 20 19 17 17 16 15 15 13 13 12 12 9 8 7 8 10 10 10 9 9 9 9 9 9 9 9 8 8 8 8 9 9 10 10 10 11 10 10 11 12 13 13 13 12 12 11 10 9 8 7
8 6 8 7 5 2 1 1 1 3 2 4 2 1 3 1 1 1 3 2 2 3 1 2 2 2 3 4 4 3 2 3 4 4 2 3 3 4 6 7 1 9 19 26 22 16 18 18 19 17 17 16 15 14 13 13 12 12 9 8 7 8 10 10 10 10 9 9 9 9 9 9 9 8 8 8 8 8 8 9 9 10 10 10 10 9 10 11 12 11 11 10 10 10 9 8 6
9 6 7 5 2 2 1 1 1 3 3 4 3 2 1 1 3 4 4 3 3 2 2 1 2 2 4 3 2 2 3 0 3 2 0 5 4 4 3 8 1 8 19 25 22 16 16 17 20 18 17 17 15 14 13 13 12 11 9 8 7 8 10 9 9 10 10 10 9 9 9 9 8 8 8 8 8 8 8 8 8 9 9 9 10 9 9 10 10 10 9 9 10 10 10 9 7
8 6 7 4 1 0 1 1 1 2 2 3 4 3 1 1 4 4 4 4 3 2 1 2 2 1 3 1 2 1 3 2 2 3 1 6 7 7 3 9 2 8 19 26 22 15 15 17 20 19 18 17 15 14 13 13 12 11 9 8 7 7 9 8 9 9 10 9 9 9 8 8 8 8 8 7 8 9 7 7 7 8 9 9 9 8 7 8 7 7 7 10 13 15 15 13 10
7 6 6 2 3 1 1 1 1 1 2 2 3 4 1 1 3 3 4 4 2 1 1 2 0 1 2 2 2 1 4 2 3 5 2 5 9 8 4 8 1 9 18 25 22 15 14 18 20 19 18 17 16 14 13 13 11 10 9 8 6 7 9 8 9 9 8 9 9 9 8 8 7 7 7 7 8 8 7 6 7 8 8 8 8 7 6 6 6 5 10 15 18 19 18 15 13
5 4 5 3 1 1 1 2 1 2 3 2 4 5 2 2 2 4 3 2 2 0 1 3 2 1 1 1 2 3 6 4 3 5 4 7 10 7 5 7 3 10 17 23 22 14 14 18 21 19 17 17 16 15 14 12 12 10 9 8 6 7 9 8 9 8 8 8 8 8 7 6 6 6 7 7 8 7 7 6 7 8 8 8 7 6 7 7 6 7 13 17 19 20 19 17 15
4 1 2 2 2 1 2 2 2 4 3 3 3 4 3 3 2 3 1 1 2 1 0 1 3 3 1 1 1 2 6 7 6 7 10 11 9 3 6 7 4 10 16 21 22 15 13 19 21 19 17 16 16 15 14 13 12 10 9 8 6 7 9 9 9 8 8 8 7 7 7 6 5 6 6 7 7 7 7 6 8 8 8 7 6 7 8 8 6 8 14 17 20 20 19 17 15
5 2 1 1 1 1 0 3 2 2 2 1 2 2 3 4 2 2 2 1 1 1 0 1 3 2 3 2 1 5 7 12 9 10 12 8 5 1 7 6 5 10 16 19 22 17 14 20 22 19 18 16 16 15 13 13 11 10 9 9 7 7 9 10 9 8 9 8 8 8 6 6 5 5 5 6 6 7 7 7 9 9 8 6 6 6 6 8 7 10 14 17 19 19 18 17 15
4 3 1 1 1 1 1 2 2 1 2 0 2 2 3 3 1 2 1 2 1 1 2 2 3 2 3 1 3 5 7 16 11 10 12 7 4 2 5 6 5 8 15 17 21 18 13 19 22 20 19 16 16 15 14 13 12 11 9 9 7 7 9 10 9 9 9 9 9 8 7 6 5 5 5 5 6 7 6 7 9 9 7 5 4 3 5 7 8 11 15 17 19 18 17 16 15
2 3 0 1 1 2 2 2 2 2 2 1 1 2 2 1 1 2 2 2 2 1 2 2 2 3 2 1 5 4 7 16 13 12 14 10 6 3 3 5 5 5 10 12 16 14 10 17 23 20 19 18 16 16 14 13 12 11 10 9 7 8 9 10 10 9 9 9 10 8 7 6 5 5 4 5 6 6 6 7 7 7 6 4 3 3 6 8 10 13 15 17 18 17 16 15 14
0 2 1 1 2 2 2 2 2 2 3 1 1 1 1 1 2 2 2 1 1 1 2 1 1 2 2 2 4 3 7 16 15 14 14 11 8 4 2 4 4 2 5 6 8 8 7 14 21 21 20 19 17 16 15 13 12 11 10 10 8 7 8 9 9 10 10 10 10 9 7 7 6 5 5 5 5 7 7 8 6 5 5 3 2 3 6 9 11 13 15 17 17 16 16 14 12
1 1 1 2 1 0 1 2 3 3 3 3 4 3 1 2 3 1 1 2 1 0 3 1 1 2 3 2 3 3 7 18 17 14 12 10 8 5 2 2 3 2 2 4 5 6 6 9 16 20 20 20 18 17 16 15 13 12 11 10 9 7 8 9 9 9 10 9 10 9 8 7 5 4 5 5 5 7 8 8 6 5 5 2 2 4 7 9 11 13 15 17 17 16 15 13 10
1 1 1 1 1 1 1 1 2 2 3 4 4 3 1 2 1 2 1 1 1 1 3 1 1 2 3 1 2 3 7 17 15 12 11 9 7 6 3 1 2 2 2 4 5 5 5 6 10 16 19 21 19 17 17 16 15 13 12 11 10 9 8 9 8 8 9 9 9 9 8 7 6 5 5 5 5 7 7 7 6 5 4 2 2 5 8 10 12 13 15 17 18 17 14 11 9
1 0 1 2 0 0 2 1 2 3 4 5 3 2 2 2 2 1 1 0 1 3 4 1 2 3 1 1 1 2 8 16 13 9 9 7 6 5 3 1 1 2 2 3 5 4 5 6 7 11 17 19 18 17 17 18 17 15 14 13 12 11 9 9 8 8 9 10 9 9 9 9 7 5 5 5 5 6 6 6 6 5 4 2 3 6 8 11 12 12 15 18 19 18 15 11 9
0 1 1 2 2 1 2 0 2 4 3 6 2 3 1 1 2 2 1 3 2 4 2 2 1 3 2 2 2 4 12 16 11 7 6 6 5 4 4 3 1 0 2 3 4 5 6 7 7 8 12 16 16 15 16 17 18 17 15 14 13 12 12 10 10 8 8 9 10 10 10 10 9 6 5 5 6 6 6 6 5 4 3 1 3 5 8 11 11 12 16 18 18 18 15 11 8
0 1 0 2 2 1 2 1 1 3 3 5 2 2 1 2 1 2 2 4 3 2 3 1 1 3 4 4 4 8 13 12 8 5 4 4 5 4 5 5 4 2 0 2 4 4 6 7 7 7 9 13 14 14 14 15 17 18 17 16 14 13 13 12 11 10 9 9 10 10 10 10 10 7 5 5 6 6 6 6 5 4 3 0 2 4 8 10 10 12 15 17 18 18 16 12 8
1 1 1 1 1 1 2 4 3 2 5 4 2 1 1 2 1 1 0 3 4 2 3 2 2 3 5 4 4 8 10 11 8 5 6 6 6 4 5 7 6 4 3 1 3 5 6 7 7 7 7 11 13 13 13 14 16 17 18 17 16 15 13 13 12 11 11 9 9 10 10 10 11 9 7 5 6 8 9 7 5 5 4 3 3 5 7 9 10 11 14 16 17 18 17 14 9
1 1 1 0 1 1 2 4 3 2 4 3 2 1 2 1 1 2 2 4 3 4 2 1 5 8 9 7 6 8 11 13 12 11 11 11 9 7 7 8 8 6 5 3 3 5 7 8 9 9 8 9 11 12 11 13 15 16 18 17 16 16 14 14 13 12 12 12 10 10 10 10 11 11 9 7 7 9 9 6 6 7 5 5 5 6 8 9 9 10 14 15 16 17 18 16 12
1 0 1 0 1 1 1 2 2 1 2 2 1 0 1 1 1 2 3 3 4 5 0 2 6 8 8 10 10 11 12 14 14 14 14 13 11 10 9 9 9 9 8 5 4 5 7 9 10 11 11 9 10 11 11 11 13 14 16 17 16 15 15 14 13 12 13 14 12 10 10 11 11 10 11 10 8 9 9 8 8 7 6 7 6 7 7 8 8 10 12 14 16 18 18 17 15
0 1 1 2 1 0 2 2 2 1 1 1 1 1 2 0 0 1 3 5 6 4 3 2 1 2 5 9 11 11 11 13 14 14 14 13 12 10 10 10 10 10 11 9 6 5 7 10 12 11 10 10 10 11 11 10 10 12 13 15 15 14 15 14 12 12 12 13 13 12 11 11 10 9 11 11 11 10 9 11 10 7 8 8 6 5 5 5 7 9 11 13 15 17 18 18 17
1 1 1 4 1 1 3 4 2 1 1 2 1 2 2 2 1 2 2 5 4 2 6 4 3 5 6 7 9 10 11 13 14 15 14 13 12 11 10 10 10 11 11 10 9 7 6 9 12 13 10 9 11 11 12 10 9 11 11 13 13 13 13 13 13 14 13 12 13 14 14 14 12 10 10 11 11 9 10 13 13 10 9 7 4 3 2 2 4 7 9 11 12 14 16 17 17
1 0 2 3 1 1 3 3 1 2 2 2 3 2 0 2 2 3 4 4 2 3 6 5 4 5 5 6 7 8 10 13 14 15 14 14 14 13 12 11 11 12 12 11 10 9 6 7 10 14 11 8 11 12 12 11 10 9 10 10 11 11 11 12 14 14 12 11 12 12 12 14 14 12 11 11 10 10 10 12 12 11 10 8 5 4 4 2 0 4 7 8 10 11 13 15 16
2 1 1 1 2 2 1 3 2 3 3 3 2 0 0 3 2 2 3 2 4 4 4 5 6 5 4 5 7 8 10 11 12 12 12 12 13 14 14 13 12 12 12 12 11 9 8 6 7 12 12 8 9 11 11 11 10 9 8 8 8 9 9 9 11 12 11 10 12 11 11 12 14 14 12 11 11 11 10 9 11 11 11 12 7 4 5 4 2 1 3 5 7 9 11 13 15
3 0 1 1 2 3 1 1 2 3 5 3 1 1 3 4 1 2 2 2 4 4 4 5 6 6 6 7 9 10 10 10 10 9 9 9 10 11 12 11 11 11 11 13 12 11 9 8 5 6 9 7 8 10 10 10 9 8 8 6 5 6 7 7 8 9 8 8 7 7 10 13 14 14 12 11 10 11 11 11 12 11 12 13 7 4 5 4 4 2 2 3 6 7 9 10 12
3 1 2 1 2 4 3 3 4 5 6 2 1 4 3 2 0 3 3 4 3 3 3 4 5 7 8 9 10 10 10 10 9 9 9 8 9 10 11 12 12 12 13 14 15 13 10 9 5 1 5 6 7 8 8 8 7 8 9 6 5 4 3 5 5 5 6 5 6 5 6 9 13 14 12 11 11 14 14 13 13 11 11 10 4 2 2 2 3 3 3 3 6 8 9 10 11
2 0 0 2 2 3 3 5 6 4 3 2 4 5 1 1 1 4 4 3 3 3 3 4 5 8 8 8 8 8 9 9 9 9 8 8 9 12 13 15 15 14 15 15 15 14 12 9 5 3 4 6 6 7 7 7 6 6 6 3 3 4 2 4 4 3 4 2 4 4 4 4 7 12 11 9 10 12 12 12 14 12 7 3 2 3 3 1 2 2 3 5 8 8 10 11 10
1 1 2 5 4 3 3 5 4 2 2 3 6 4 3 2 2 2 3 4 3 3 5 5 5 7 7 6 6 6 7 9 9 8 9 10 11 13 14 16 17 15 15 16 16 14 13 11 7 5 6 9 7 6 7 6 5 5 5 4 5 5 4 6 6 4 2 1 2 2 3 4 4 8 9 8 7 8 9 10 11 8 5 4 3 3 3 1 1 2 3 5 6 7 9 10 10
1 1 4 5 5 5 4 4 3 2 2 3 5 2 4 3 2 2 4 3 3 3 6 5 5 6 5 5 5 5 7 8 8 10 12 12 11 12 13 15 16 15 15 16 17 14 13 14 12 9 8 11 10 8 10 9 8 10 9 9 10 8 8 9 9 8 6 5 3 3 3 3 3 3 4 5 5 6 8 8 8 8 7 6 5 3 2 1 1 2 3 4 5 6 6 7 8
1 1 5 5 6 5 2 0 1 1 0 2 4 4 4 4 3 4 3 2 3 3 5 5 5 5 4 5 5 6 8 8 10 11 11 11 10 11 12 13 14 14 15 15 16 15 13 14 14 12 10 14 14 12 13 12 12 14 13 13 14 11 11 11 11 10 9 8 6 5 5 4 3 2 3 3 2 2 3 3 6 7 6 5 4 3 3 3 3 3 3 3 4 4 4 4 5
1 1 3 6 6 3 2 1 1 2 1 2 3 3 3 5 4 3 2 3 4 3 4 4 4 4 4 4 4 6 8 9 10 11 10 10 10 10 12 13 13 14 14 14 16 16 15 15 16 16 15 17 17 14 15 16 15 16 15 15 16 14 13 14 14 13 10 10 10 8 7 6 6 5 4 4 5 5 4 4 4 3 3 5 6 6 5 5 4 4 3 3 3 3 3 4 5
1 1 1 2 5 1 4 1 2 2 1 2 5 5 1 7 4 4 3 3 6 2 4 3 3 3 2 3 4 5 7 8 9 10 11 11 10 10 12 13 13 14 14 15 16 17 16 17 19 22 21 20 19 18 18 19 18 19 18 19 19 17 17 19 20 17 15 15 14 13 11 9 9 9 8 7 7 8 8 8 8 7 7 8 7 6 6 5 4 4 3 3 2 3 4 6 6
0 3 3 2 2 2 3 2 2 2 1 1 5 4 1 7 4 4 4 2 5 3 3 3 2 3 2 3 3 3 5 7 9 10 11 11 10 11 11 12 14 14 15 15 16 17 18 20 22 25 26 25 25 24 23 23 23 23 24 24 23 22 22 24 25 23 21 21 20 19 18 16 15 15 14 11 11 12 11 11 11 9 8 7 5 5 4 4 3 2 3 3 2 4 6 6 6
2 3 5 2 3 4 0 2 1 2 0 1 3 3 0 5 3 3 3 1 4 4 3 3 2 2 2 2 3 3 4 5 8 11 12 11 10 11 11 12 13 14 15 16 17 18 20 21 22 25 28 29 30 29 28 29 29 28 28 27 27 27 26 26 26 25 24 23 22 22 22 21 19 18 18 16 15 15 14 13 13 11 9 7 5 5 4 4 3 2 3 2 2 4 5 6 6
3 3 4 3 4 4 2 2 2 1 2 1 1 4 3 5 5 2 2 1 3 4 4 3 2 2 2 2 3 3 4 5 7 10 12 11 10 10 10 12 13 14 16 17 18 20 22 23 24 26 28 30 31 30 29 31 30 29 30 30 28 29 29 28 27 26 25 24 23 22 22 21 20 19 19 19 18 18 16 15 15 13 11 10 9 8 7 7 6 5 5 4 4 4 5 7 8
3 4 4 3 4 6 5 2 1 1 3 3 2 6 7 5 8 3 3 1 3 3 3 3 2 2 2 2 3 3 4 5 6 9 10 10 10 9 10 12 13 15 17 18 19 21 22 24 26 27 29 31 32 32 31 31 31 31 32 32 30 30 30 29 28 27 26 25 24 22 21 21 19 18 18 18 18 18 17 16 16 15 13 12 11 10 10 9 8 8 7 7 7 7 9 10 11
2 3 3 4 5 6 4 1 1 1 3 7 7 9 11 6 7 6 3 2 2 4 3 2 2 2 2 2 3 3 4 5 5 7 8 8 8 8 9 11 13 15 17 18 19 21 22 24 26 28 29 31 32 32 31 31 31 32 32 32 32 31 30 29 28 28 27 26 25 23 22 21 20 19 18 18 18 17 17 17 16 15 14 13 13 13 13 12 11 11 9 11 10 8 12 14 15
2 2 3 5 7 6 2 3 2 1 3 7 7 8 12 9 4 6 4 3 3 4 4 3 3 2 2 2 3 3 3 4 3 5 6 7 7 8 9 11 12 15 17 18 19 20 21 23 25 26 26 27 28 28 28 28 28 29 30 31 31 31 30 29 29 28 27 26 25 24 23 23 21 20 20 20 20 19 19 18 18 18 17 16 17 17 17 16 15 14 11 12 12 10 13 17 19
3 4 5 5 7 7 2 2 2 1 4 4 2 5 11 6 4 5 4 5 4 3 3 3 3 3 2 2 3 3 3 3 2 4 5 6 7 8 9 12 13 15 17 18 19 20 20 21 22 23 23 24 25 24 24 25 26 27 28 30 30 31 30 29 29 29 28 27 26 25 25 24 23 23 22 21 22 22 21 21 20 20 20 19 19 19 18 18 18 18 14 12 12 12 13 17 20
4 4 5 5 5 4 2 2 2 2 4 2 2 5 9 2 5 4 3 3 2 1 1 2 2 3 3 2 2 2 3 3 3 4 4 5 6 7 9 12 14 15 16 17 19 20 21 22 22 23 23 23 22 22 22 24 26 26 28 29 30 31 31 30 30 29 28 27 27 26 26 25 25 25 24 23 23 23 23 23 22 21 21 20 20 19 20 20 20 20 19 15 11 10 11 15 19
6 5 5 7 3 2 4 2 3 2 2 2 1 6 8 3 4 3 3 2 2 2 1 1 1 2 2 2 2 2 3 3 3 3 4 4 6 7 9 10 13 15 16 17 18 20 22 23 24 24 23 23 23 23 24 26 27 28 30 31 32 33 32 31 31 30 29 28 28 27 27 26 25 25 24 24 23 23 22 22 22 21 21 20 20 21 21 21 21 20 20 18 13 10 10 13 16
7 7 8 9 5 6 6 1 2 2 2 2 2 6 6 4 4 3 3 3 3 3 3 3 2 2 3 3 2 2 2 2 3 3 3 4 5 7 8 9 11 13 15 16 18 20 22 24 25 26 26 26 27 27 28 29 29 30 31 29 29 29 28 27 28 28 29 30 30 29 29 27 26 26 25 25 24 24 23 23 23 22 22 23 23 24 23 22 22 21 20 19 16 12 10 11 12
6 8 12 13 10 7 4 2 2 4 3 3 2 5 3 3 4 4 4 4 4 3 4 5 4 4 4 4 4 3 2 2 2 3 3 4 5 6 7 8 9 10 13 15 17 19 22 24 26 27 28 29 28 28 28 28 29 28 26 23 22 22 22 21 20 22 25 29 30 30 30 29 29 28 28 27 26 26 25 25 25 25 25 25 25 25 25 24 23 23 22 21 20 15 11 11 12
4 4 9 12 10 5 5 6 5 4 2 1 1 5 3 2 3 5 5 5 5 4 5 6 6 5 5 5 4 5 4 3 3 3 4 4 5 6 7 7 7 8 11 14 16 19 22 24 26 27 27 27 27 26 25 25 26 26 26 26 26 23 21 19 19 21 23 26 29 30 30 30 29 29 28 28 27 26 25 25 25 25 25 25 25 24 24 24 23 22 22 22 22 20 14 12 12
2 1 1 6 7 7 8 8 6 3 2 1 2 2 4 5 2 4 5 5 5 6 6 7 7 7 7 6 5 5 5 4 3 3 4 5 5 6 6 6 6 8 11 14 17 19 21 23 24 25 25 25 25 24 24 24 26 27 28 32 30 26 24 23 22 24 25 26 29 29 29 29 28 28 27 26 26 25 24 24 24 23 23 23 23 23 22 22 21 21 21 21 21 21 19 14 12
0 2 2 4 4 5 6 6 5 1 1 4 5 3 3 5 2 3 3 4 6 8 9 10 10 9 8 8 7 6 5 4 3 4 4 5 5 5 6 6 6 9 13 16 19 21 22 23 23 24 24 24 24 24 25 26 27 29 30 33 32 29 27 26 24 25 26 27 28 28 28 27 27 26 25 25 24 23 23 23 22 22 22 22 22 21 21 20 20 20 20 20 20 20 20 17 14
3 5 6 7 5 4 3 3 3 2 3 7 6 7 5 5 3 4 3 4 7 7 9 11 10 10 9 9 8 7 5 4 4 4 4 4 5 5 5 6 7 11 15 17 20 23 23 24 24 25 25 25 26 26 27 27 28 30 31 33 33 30 27 26 25 25 24 25 26 26 26 25 25 24 24 23 22 22 21 20 20 21 20 20 20 19 19 19 19 19 19 19 18 18 18 18 16
7 7 7 7 5 4 2 1 1 2 5 4 2 5 5 4 4 5 4 1 2 6 8 9 10 11 11 9 8 8 6 6 5 5 5 4 4 4 5 6 8 12 16 18 21 23 24 25 26 27 27 26 27 27 27 28 29 30 31 32 32 30 28 26 25 24 22 23 23 23 23 23 22 22 21 20 20 19 19 19 18 18 18 18 18 18 18 18 18 18 17 17 17 17 17 16 16
4 4 5 5 3 3 2 2 2 5 5 1 2 0 5 5 3 3 3 1 2 5 8 11 13 12 11 9 8 8 7 6 6 6 6 6 6 6 6 7 8 10 13 17 20 23 25 26 27 28 28 27 28 28 28 29 29 30 30 30 29 28 27 26 24 23 22 21 20 19 20 20 20 20 19 19 18 18 17 17 17 17 17 17 17 17 17 16 16 16 16 16 16 16 16 16 15
3 4 7 6 4 4 4 3 3 5 3 2 1 1 4 6 5 4 3 3 3 2 3 8 13 14 12 10 8 7 7 7 7 6 6 7 8 8 8 8 8 9 11 15 20 23 25 26 27 29 29 28 29 28 29 29 29 29 28 27 27 26 25 25 24 23 21 19 19 18 18 18 18 19 18 18 17 17 16 16 16 16 16 16 16 16 16 16 16 16 17 17 17 17 17 17 16
7 8 8 8 5 4 5 3 2 4 1 2 1 1 2 3 4 5 3 1 1 1 2 1 8 13 12 10 9 7 7 7 7 6 6 8 9 9 9 9 9 9 11 15 20 23 26 26 28 30 30 29 29 28 28 28 28 27 26 26 26 25 25 24 23 22 21 19 19 19 18 17 18 18 17 17 16 15 15 15 15 15 15 15 15 15 16 16 16 17 17 17 17 17 18 17 17
6 4 3 5 5 4 4 3 3 2 2 3 1 2 4 4 1 2 2 2 2 0 1 2 3 8 9 9 9 8 8 8 7 7 8 9 10 9 9 9 9 9 12 16 20 23 26 27 28 30 30 29 28 28 27 27 27 26 25 25 24 24 24 24 23 22 20 19 19 18 18 17 17 17 16 16 15 14 14 14 14 14 14 15 15 15 16 16 17 17 17 18 18 18 18 18 18
2 1 1 4 3 2 1 0 1 2 1 3 3 3 3 2 1 1 1 1 1 1 1 3 4 7 8 8 9 9 9 9 8 8 8 10 10 9 9 9 10 11 13 17 21 24 26 28 29 29 30 28 27 27 27 27 26 25 24 24 23 23 23 22 21 20 19 19 18 17 17 16 16 16 15 15 14 14 13 13 14 14 15 15 15 16 16 17 18 18 18 18 18 19 19 19 18
3 3 5 2 1 2 3 1 2 2 4 3 4 4 3 1 2 2 1 2 4 3 3 5 6 9 10 9 9 10 9 9 9 8 9 11 11 11 10 10 11 13 15 18 22 24 27 29 29 29 29 28 27 27 27 26 25 25 24 23 22 21 21 20 19 18 17 16 16 15 15 14 14 14 14 14 14 14 14 14 15 15 16 16 17 17 17 18 18 18 18 19 19 19 19 19 19
4 5 5 2 1 1 1 2 2 2 5 3 4 7 6 5 3 2 3 5 7 7 5 6 7 9 11 11 10 10 10 9 9 9 10 12 12 12 12 12 13 14 16 19 22 25 27 28 29 29 29 29 27 27 26 25 24 24 22 21 20 19 18 17 16 15 14 13 13 13 12 12 12 12 13 13 13 14 14 14 15 16 16 16 17 17 18 18 19 19 19 19 20 21 20 20 19
1 2 2 2 2 3 2 3 2 3 5 3 4 5 5 7 5 5 7 10 9 9 8 8 10 12 12 12 12 12 11 9 9 10 10 12 13 13 13 14 15 15 17 19 23 26 27 28 28 28 28 28 27 26 25 24 23 22 20 19 17 16 15 14 13 12 12 11 11 11 11 11 11 11 12 12 12 13 13 13 14 15 15 15 16 16 17 18 19 19 19 19 20 21 20 20 19
1 1 2 1 2 2 3 2 2 3 4 3 3 3 4 6 7 10 13 12 11 11 9 10 12 13 13 12 13 13 12 11 11 10 10 12 14 14 15 16 16 17 18 20 23 26 27 28 28 27 27 27 26 25 24 22 21 19 18 17 15 14 13 12 11 10 9 9 9 9 9 10 10 10 11 12 12 12 13 14 14 15 15 16 16 17 18 19 19 19 19 19 20 21 21 20 20
5 6 6 4 1 0 1 1 1 1 4 4 4 4 3 4 4 9 12 9 10 12 11 11 11 13 13 13 14 13 11 12 11 9 10 12 14 15 15 15 15 17 19 21 24 25 26 27 27 27 27 27 26 24 22 21 19 17 16 15 14 12 11 9 8 7 7 7 8 8 8 9 10 10 12 12 12 13 13 14 15 15 16 16 17 18 18 19 19 19 20 21 21 22 22 21 21
5 6 8 8 5 4 4 4 2 1 3 2 2 5 2 3 1 3 4 2 6 10 10 9 10 13 14 13 13 12 11 11 10 9 10 12 14 15 15 14 14 16 19 22 24 24 25 26 27 27 27 26 25 23 21 20 18 17 15 14 12 11 9 7 6 5 5 6 6 7 8 9 10 11 12 13 13 14 14 15 15 16 16 16 17 17 18 18 19 20 20 21 22 22 22 22 22
Wind_Direction
343 344 347 348 357 324 234 329 200 104 350 101 83 112 104 3 330 293 133 135 173 93 319 317 285 261 296 321 336 334 310 311 1 353 46 61 0 6 192 189 198 180 177 177 173 174 175 173 175 181 180 176 180 179 178 176 172 173 170 164 154 148 147 145 145 142 140 138 135 136 135 131 128 127 125 122 118 115 113 112 112 112 106 101 96 93 95 95 93 87 82 77 71 67 64 62 60
349 347 346 351 1 315 159 304 241 124 152 113 93 45 76 225 241 59 76 59 52 68 330 303 257 256 291 293 288 272 261 268 336 347 34 2 352 17 195 184 189 182 179 178 174 173 177 179 178 182 183 178 181 181 181 177 175 178 173 169 158 151 150 149 151 148 147 143 140 141 138 137 133 131 127 126 129 123 119 118 120 117 111 105 97 92 95 94 89 82 77 70 60 53 44 36 32
350 348 344 345 9 343 152 251 222 143 152 111 105 99 71 164 90 53 48 24 32 17 289 265 233 247 252 224 260 282 66 217 309 304 255 359 9 7 208 186 215 181 181 180 175 173 179 186 183 183 184 181 184 184 183 180 181 182 178 175 164 152 153 154 156 152 150 146 145 144 142 142 137 137 132 131 134 130 129 128 127 118 112 108 100 92 83 82 83 80 74 55 37 26 17 10 2
353 347 339 304 219 24 216 239 153 171 141 116 113 124 201 92 71 46 33 3 347 313 256 227 205 155 271 303 12 302 42 70 58 336 320 28 10 345 220 187 208 178 183 182 177 174 181 191 187 186 186 183 186 188 186 185 186 185 185 181 166 156 158 161 158 155 154 150 150 148 145 144 140 142 139 140 138 134 138 138 132 121 115 106 97 88 65 58 67 69 46 21 11 7 4 1 355
354 354 358 285 226 24 265 89 118 223 99 117 117 122 169 67 55 24 12 9 4 292 287 282 258 110 272 335 329 335 23 29 61 0 345 24 1 350 184 180 182 178 183 183 179 175 188 195 188 189 189 187 188 191 191 189 191 188 191 190 174 163 164 166 162 160 160 155 154 151 145 142 138 136 135 145 145 137 143 147 134 125 115 101 97 89 58 41 51 41 16 9 4 360 358 356 354
353 0 39 54 144 12 219 156 164 127 62 39 104 112 98 48 13 348 345 40 72 247 305 309 343 297 205 80 289 347 7 331 348 1 342 331 341 356 166 170 155 176 180 185 184 178 196 196 186 190 192 191 192 195 196 194 196 192 196 197 188 175 169 172 169 167 165 157 157 155 145 140 139 137 132 141 147 145 151 152 139 130 117 105 99 81 55 45 51 30 11 6 1 355 353 352 350
344 323 58 65 115 288 238 133 129 117 64 356 59 85 59 40 354 329 338 113 109 141 202 0 327 291 107 43 271 40 14 355 335 330 323 316 332 4 166 165 155 176 180 186 188 182 200 195 185 190 193 196 197 200 201 200 203 199 201 201 195 185 177 179 176 174 172 163 162 158 148 148 151 153 148 145 148 152 157 156 148 134 121 113 97 81 64 49 33 15 8 1 356 351 349 350 348
354 349 252 288 112 13 227 119 93 86 79 342 355 13 4 9 323 316 40 60 49 42 353 89 282 293 78 311 353 80 29 5 341 328 331 325 353 70 168 164 156 177 181 187 192 189 199 195 187 189 192 199 202 204 205 206 211 207 207 205 198 192 185 184 182 178 177 174 169 161 156 160 167 171 166 159 151 152 162 156 147 135 128 126 109 93 56 35 15 7 6 358 353 349 348 348 348
6 8 227 244 129 100 120 135 101 70 94 112 299 299 318 341 290 296 31 82 59 301 341 24 284 339 53 247 73 86 22 10 5 360 359 4 34 103 163 161 153 183 187 187 194 196 199 196 194 193 193 200 205 210 212 214 220 217 214 211 201 194 192 188 187 184 182 179 176 170 169 176 180 181 178 172 160 159 165 152 140 136 139 138 111 75 22 27 19 8 5 357 352 348 348 348 349
11 24 245 163 179 163 153 158 125 119 92 53 310 313 295 271 240 274 304 67 74 301 24 22 277 347 0 119 78 78 13 15 21 14 12 19 29 68 149 165 150 176 192 191 195 200 203 201 201 198 197 201 207 213 216 219 223 224 221 222 211 198 196 193 193 190 188 184 184 182 176 188 190 181 183 181 172 171 167 150 142 143 147 139 99 40 19 30 19 8 4 357 353 350 349 348 351
295 46 331 200 198 192 172 159 135 102 78 92 99 3 317 246 232 219 281 31 85 324 64 160 234 357 317 101 83 103 29 18 16 6 9 17 18 39 108 165 155 161 192 198 197 201 207 207 206 204 204 205 209 214 216 220 224 226 226 229 221 205 203 203 201 197 196 192 192 193 186 196 199 183 184 188 184 178 167 152 149 153 153 139 93 36 28 27 15 6 3 358 356 355 352 350 354
282 71 268 214 192 191 118 142 129 88 104 126 97 68 357 246 237 129 8 31 32 335 104 186 345 346 284 106 111 142 39 16 8 356 1 11 15 28 71 157 179 199 211 211 202 204 207 209 210 210 211 210 212 215 216 220 222 227 229 231 226 212 211 213 213 206 205 204 200 205 204 208 210 197 187 193 191 177 165 154 152 151 150 133 75 35 29 21 9 3 1 1 1 0 356 352 357
20 89 255 170 26 45 115 139 125 111 136 124 78 61 294 248 278 47 56 67 331 338 75 22 300 270 291 55 128 153 32 12 360 351 357 5 15 20 32 132 195 212 231 222 208 204 206 207 210 213 216 216 216 216 217 220 221 225 229 232 230 218 215 219 223 219 215 217 213 214 219 221 219 213 202 202 193 178 173 164 153 141 141 128 52 27 20 8 360 0 2 5 5 5 1 356 1
12 60 311 113 77 149 152 173 153 189 151 116 68 0 253 258 357 11 264 88 86 12 31 71 249 258 298 320 147 104 2 358 355 356 358 3 23 25 32 42 201 202 209 216 214 205 208 207 206 210 216 219 220 220 221 222 221 223 226 228 229 222 217 219 226 233 230 227 225 222 226 232 232 227 216 211 199 188 189 178 157 143 155 145 42 18 4 354 353 2 9 9 7 7 4 0 3
353 149 27 118 147 172 186 272 154 202 150 114 87 323 250 194 334 270 300 350 49 42 337 211 245 288 4 335 2 9 336 343 355 10 4 10 35 44 44 35 41 179 196 197 213 211 216 215 212 210 210 215 218 222 223 225 225 223 224 226 227 224 219 218 223 233 238 236 234 231 230 237 246 246 230 220 213 203 201 185 163 166 179 120 33 5 346 344 356 12 14 9 7 8 7 3 2
19 165 170 136 156 195 186 161 160 195 140 114 125 277 245 129 290 281 38 325 307 48 314 278 165 313 7 11 353 338 332 351 11 25 35 45 54 58 53 39 35 22 303 196 210 212 220 221 221 216 209 211 214 221 223 227 229 226 225 226 228 230 222 218 222 227 234 238 239 240 238 241 251 255 243 229 219 206 204 198 187 207 216 240 358 343 333 339 2 18 13 7 8 9 9 7 2
252 239 231 148 174 202 177 173 177 135 119 125 121 271 308 85 193 291 52 257 277 311 311 321 96 33 44 57 353 338 351 20 38 55 63 58 55 52 41 34 35 21 356 286 234 221 218 220 223 224 217 212 213 220 223 225 231 230 229 227 228 232 229 223 222 225 230 232 233 237 238 239 244 251 250 236 223 208 203 203 205 223 235 253 294 310 315 336 360 18 14 7 8 10 12 11 6
262 244 247 189 161 124 169 175 166 92 102 120 75 18 331 6 348 336 270 217 264 281 273 32 101 93 84 72 25 13 20 32 43 49 48 42 37 29 22 20 22 14 1 337 271 247 229 222 219 221 221 216 213 216 221 223 227 230 230 231 230 231 233 231 227 228 232 232 229 229 229 233 237 242 246 245 242 217 200 196 204 217 235 253 272 289 307 338 358 18 16 6 9 12 13 13 10
316 144 291 159 120 92 163 149 148 168 76 74 75 52 281 340 12 341 306 293 311 301 272 110 122 117 84 50 29 25 26 31 36 39 42 37 27 21 12 4 7 7 357 347 306 264 244 232 224 220 219 217 211 212 218 222 225 228 230 233 235 233 234 236 234 233 237 236 231 227 225 227 230 232 237 241 245 229 214 217 222 227 232 240 262 288 312 349 5 18 18 10 11 11 12 13 11
1 237 281 82 92 157 201 208 190 168 49 324 114 149 255 194 141 286 307 303 300 323 40 60 129 76 34 32 22 18 24 29 32 36 40 34 27 21 9 0 357 353 349 350 341 297 261 242 233 226 222 216 210 209 211 216 221 224 227 231 235 237 238 240 238 237 239 240 237 234 233 231 228 228 233 236 235 228 222 221 228 247 243 244 276 292 311 357 13 18 16 13 13 9 8 11 9
150 263 340 82 104 218 166 200 217 141 202 274 121 194 232 123 179 247 262 290 278 27 37 7 347 13 20 28 17 16 26 29 30 32 33 29 24 19 9 359 349 344 345 350 345 323 285 252 237 229 224 217 210 208 208 209 212 219 223 227 232 237 244 244 241 244 238 236 243 242 241 240 236 233 235 236 231 222 215 214 223 241 243 250 278 256 266 345 24 21 14 11 12 9 5 6 7
177 107 32 95 180 275 120 161 182 137 174 211 205 226 274 122 201 223 230 278 328 26 22 16 26 39 31 23 18 25 31 32 32 28 27 24 19 14 7 0 354 350 351 351 340 331 312 276 247 226 217 215 210 206 206 205 204 214 221 222 229 233 241 243 242 251 245 234 244 242 239 240 239 239 239 238 232 224 219 217 225 234 235 238 238 220 233 237 81 20 16 12 12 10 3 2 3
259 119 86 164 200 282 95 141 169 160 192 227 222 275 178 220 228 184 220 305 27 31 26 39 50 47 36 34 33 35 36 35 34 28 25 22 17 12 6 1 358 354 354 351 341 339 335 318 276 229 210 208 210 203 203 204 201 207 217 219 225 227 236 246 245 257 263 251 245 239 237 238 237 240 241 239 234 231 230 226 230 239 241 234 221 213 236 240 236 353 23 18 13 8 3 2 1
278 147 135 194 198 251 268 137 186 195 239 264 71 229 238 254 257 152 145 61 56 53 52 55 60 54 49 47 39 36 37 36 35 33 29 25 19 14 10 5 1 356 356 356 356 354 344 347 337 231 202 197 203 196 197 202 201 203 211 218 216 215 233 245 245 260 276 278 267 255 250 243 240 244 242 237 238 237 236 234 236 245 245 234 225 238 259 263 257 277 3 32 26 9 5 7 1
242 267 109 148 210 250 264 255 242 227 251 252 187 246 246 285 220 130 96 90 89 71 64 58 62 55 48 42 36 33 30 29 29 28 29 25 21 22 20 14 10 7 7 10 13 12 2 2 18 135 179 187 189 186 187 193 199 204 204 212 208 197 246 244 234 260 275 299 322 321 287 258 242 246 246 238 248 251 239 232 238 242 239 233 230 254 291 301 290 305 328 22 32 18 14 13 4
211 214 98 249 257 278 278 264 256 239 247 176 221 258 113 82 180 115 86 101 107 92 76 57 60 55 49 43 37 34 30 26 21 20 21 22 24 25 21 17 19 17 17 24 24 25 29 25 28 76 143 163 168 172 171 177 188 190 188 183 182 183 216 216 195 217 239 285 330 333 334 310 250 240 239 235 250 256 240 231 237 234 221 205 103 92 91 65 306 306 319 8 28 23 16 15 9
124 116 277 267 283 294 262 260 276 274 242 203 239 262 109 127 234 124 98 120 143 120 85 60 67 65 57 53 45 37 36 29 19 19 20 23 25 20 16 15 22 26 27 34 34 35 46 50 57 70 117 138 140 147 144 154 161 156 171 158 136 138 148 161 146 141 157 57 359 322 339 338 281 231 226 232 231 230 226 224 225 210 167 132 118 116 114 124 323 325 342 12 27 27 25 23 14
110 305 274 255 264 267 243 254 288 287 236 207 221 202 126 173 208 70 82 129 180 128 88 66 67 65 57 54 49 39 35 29 23 25 24 22 19 14 11 9 16 27 31 36 41 47 60 69 80 83 101 124 122 123 135 149 141 128 137 137 126 111 104 111 105 100 89 62 39 16 18 359 304 246 242 261 249 234 236 221 188 171 163 166 170 153 136 132 63 20 13 16 13 20 33 32 21
129 288 292 274 265 258 224 147 293 268 141 150 194 172 147 162 132 78 72 143 165 123 88 68 62 57 53 49 46 43 34 29 30 28 24 19 14 15 11 8 16 27 34 42 49 58 71 77 86 93 105 126 129 119 124 137 130 117 111 104 106 107 99 92 82 81 76 69 69 59 52 54 45 23 359 341 347 321 268 218 171 170 178 173 159 119 94 96 93 74 37 8 356 5 18 21 23
205 188 309 298 284 251 131 89 285 257 145 143 225 234 154 139 114 62 54 194 189 133 85 69 62 55 48 46 48 49 37 32 35 29 23 19 16 18 12 14 27 34 41 53 59 64 74 78 85 96 108 125 135 124 111 114 112 108 105 95 94 96 92 87 82 77 74 76 76 71 66 59 64 66 57 58 63 65 68 80 101 109 92 86 84 72 65 64 63 56 27 356 350 348 343 352 1
270 252 247 284 291 202 125 94 298 267 159 184 237 270 189 143 123 31 26 210 212 167 96 84 65 67 51 54 57 53 48 39 38 32 25 22 19 20 16 23 41 47 52 61 66 72 81 83 86 95 103 113 124 122 108 106 106 104 104 100 96 95 93 91 89 85 85 88 87 83 79 77 81 83 81 81 90 92 87 86 82 71 62 60 69 73 66 56 47 41 18 1 342 324 327 333 340
33 270 239 190 259 233 123 85 332 292 73 169 230 260 169 149 134 29 19 207 195 164 114 98 73 77 59 64 65 62 63 49 42 35 25 22 21 21 21 29 45 53 59 68 76 84 89 90 91 96 100 104 109 111 107 105 105 105 104 102 100 98 96 93 92 91 91 90 91 89 86 85 87 87 89 92 96 97 92 88 81 72 60 51 61 70 66 58 43 29 8 355 325 319 326 328 331
172 241 257 221 229 261 344 101 36 337 99 155 236 271 151 143 138 50 46 153 169 153 131 119 100 83 71 70 68 63 66 50 39 29 19 19 21 21 27 38 50 59 67 75 83 90 94 97 100 101 102 104 105 107 107 106 104 103 101 100 100 98 96 94 93 92 90 87 87 87 86 86 85 87 91 92 92 92 89 85 80 76 71 67 74 75 74 73 65 50 17 353 336 334 333 338 341
196 199 252 251 233 255 269 144 101 358 253 207 211 266 268 136 136 101 80 153 184 153 140 136 120 96 85 74 70 60 52 45 31 19 13 13 17 21 39 56 63 71 76 82 89 93 97 101 104 107 108 107 105 106 107 105 104 104 102 100 98 98 97 96 95 93 91 89 87 86 87 87 87 88 89 90 91 91 90 88 86 85 82 84 87 88 86 80 74 64 47 29 18 17 9 1 355
220 189 229 245 226 237 251 234 111 59 248 237 210 252 261 167 141 133 97 159 202 145 131 134 118 110 98 82 75 62 53 51 30 15 10 10 16 23 48 70 77 83 84 87 93 96 99 103 105 109 111 110 108 107 107 106 105 103 101 99 97 94 94 94 92 91 90 90 89 88 88 87 88 90 91 92 93 93 93 92 91 89 87 87 85 83 78 71 67 61 54 41 29 29 28 16 3
228 194 230 246 243 244 238 196 78 30 255 251 247 257 266 234 152 136 122 134 167 138 134 146 136 127 111 94 83 72 64 57 32 19 18 17 23 30 53 73 82 90 92 94 100 102 104 107 108 108 109 109 109 109 108 106 104 102 99 96 94 91 91 92 90 89 89 88 88 87 87 86 86 87 88 89 89 89 88 88 89 85 82 78 72 69 63 58 56 54 51 43 39 35 27 20 7
153 191 235 242 252 259 213 123 95 67 259 256 250 260 268 258 152 125 137 147 160 164 168 167 157 154 133 115 99 85 73 60 38 32 33 29 35 46 66 78 83 91 96 101 105 107 108 111 111 109 108 109 110 109 108 105 102 101 98 96 93 90 90 89 88 87 87 87 87 86 85 84 83 83 82 83 83 82 82 80 80 76 72 69 66 63 58 55 52 51 51 41 42 42 29 21 10
200 231 243 244 246 255 240 120 105 149 235 250 211 255 263 248 129 116 158 178 177 179 184 177 162 157 137 124 116 94 87 85 74 59 48 40 45 55 70 79 85 88 93 99 103 105 108 113 114 112 112 114 113 111 109 106 103 101 100 99 97 93 91 90 89 87 87 87 86 85 84 83 82 81 79 81 81 80 79 77 75 74 72 68 65 62 57 53 49 47 48 42 42 45 38 25 18
218 231 243 253 247 254 257 121 112 167 221 238 138 262 266 212 114 120 161 185 169 131 198 180 165 166 152 137 127 119 122 114 93 73 59 51 49 56 67 77 85 88 91 98 101 104 108 111 111 110 112 113 113 113 112 109 106 106 105 102 99 96 93 93 92 90 89 88 86 85 84 83 81 80 79 78 78 78 77 75 74 72 71 68 64 60 55 51 48 46 46 44 42 44 43 32 28
220 219 232 246 222 217 247 155 127 163 232 289 285 276 269 177 128 131 128 138 120 106 121 124 153 167 148 142 138 143 145 130 111 89 69 65 58 57 61 73 86 92 95 99 102 105 108 110 110 111 112 112 112 113 113 112 110 109 107 103 101 97 94 94 93 91 90 89 88 86 85 83 82 81 79 78 76 76 75 74 73 70 69 69 65 61 57 53 51 50 48 46 44 39 40 37 36
219 216 228 243 227 221 242 119 125 194 205 235 253 275 262 193 187 174 133 150 151 148 165 162 169 167 156 159 162 157 152 149 132 113 88 72 67 61 60 73 87 94 99 103 105 107 110 112 114 114 115 115 115 115 114 113 112 108 105 102 98 95 91 89 86 85 86 87 87 86 86 85 84 83 81 80 78 77 75 75 73 72 70 69 68 65 62 58 55 55 52 49 49 44 36 36 37
227 216 223 239 244 227 210 142 203 243 221 185 221 259 237 156 198 186 148 177 176 173 196 192 182 177 184 181 171 168 163 166 145 123 112 87 80 75 68 72 80 89 103 109 111 114 116 117 119 119 119 119 119 119 119 117 115 112 109 105 98 93 86 79 77 78 81 84 85 87 87 86 85 83 81 80 79 77 76 75 73 72 71 69 69 67 65 61 58 57 57 55 56 54 45 38 34
242 222 219 229 238 220 185 179 201 246 255 129 225 261 245 189 196 161 160 196 187 186 210 206 196 189 192 190 180 178 171 166 154 136 125 109 99 92 84 77 75 90 109 115 117 121 123 123 124 124 123 124 124 123 123 122 121 119 116 110 102 96 90 85 84 85 84 85 86 87 86 85 83 82 80 78 77 75 73 72 71 69 69 68 67 66 65 62 58 57 58 57 57 56 53 45 34
224 45 198 197 203 203 195 193 208 253 330 149 203 272 275 263 219 129 155 198 200 200 212 211 204 196 193 192 186 180 174 167 158 148 134 121 112 105 100 92 87 104 116 120 123 126 128 129 129 128 127 128 128 128 128 126 123 119 115 110 103 98 97 96 93 91 90 89 88 86 83 82 81 79 78 76 74 73 71 70 68 67 66 65 65 64 62 61 58 56 55 54 54 53 53 51 41
287 57 77 129 160 184 183 196 216 265 310 234 198 158 251 256 204 127 157 218 233 208 202 207 200 192 191 190 186 177 168 167 164 157 145 133 125 115 113 110 109 121 123 124 126 127 129 130 130 130 128 127 128 129 129 125 121 117 113 110 105 102 101 99 96 93 91 90 88 85 82 80 78 76 75 73 71 69 68 66 65 64 63 62 61 61 59 57 54 52 51 50 50 50 50 50 47
139 124 99 91 86 94 132 199 189 141 242 245 197 169 225 257 195 178 175 226 240 202 193 202 190 185 192 189 182 172 162 167 173 165 156 143 133 125 123 121 120 127 127 126 126 126 126 126 127 127 124 123 124 126 126 123 120 117 113 111 108 105 103 100 97 94 90 88 86 83 81 79 76 74 71 70 68 66 64 63 61 60 59 58 56 56 54 52 49 47 47 45 45 45 45 44 43
147 144 108 96 89 89 99 155 138 213 238 241 173 175 229 257 207 206 198 197 191 167 177 185 178 184 192 187 177 169 167 172 173 169 163 151 138 134 131 127 128 131 129 128 126 125 123 122 124 123 121 122 123 124 123 120 118 115 112 111 109 107 105 101 97 93 89 87 84 81 79 77 76 74 71 68 66 64 61 59 57 56 54 52 50 49 47 46 44 42 41 39 38 38 37 35 34
165 154 134 130 120 133 152 135 182 241 234 159 60 134 226 231 216 207 203 164 149 166 173 177 179 186 188 182 172 169 172 171 172 173 167 159 151 149 146 138 137 135 131 129 126 125 123 122 124 123 121 122 122 121 120 117 115 113 111 110 109 107 105 102 98 94 90 87 83 80 79 76 74 72 69 65 61 59 57 54 52 51 48 46 45 43 41 40 38 36 34 32 30 29 28 27 24
209 164 164 179 169 173 199 183 199 240 236 102 67 180 218 234 249 253 222 189 191 185 158 173 179 181 180 176 169 169 173 175 178 177 168 166 164 163 161 155 149 143 135 133 130 127 125 124 125 124 122 122 122 120 118 116 114 113 112 110 109 107 103 100 96 93 90 86 84 81 77 74 70 66 63 59 55 52 50 47 45 44 43 41 39 38 36 33 32 29 27 25 23 21 19 20 17
195 177 178 190 171 179 205 185 227 260 216 97 35 256 222 236 255 257 235 135 81 76 68 137 175 175 175 169 165 168 176 183 185 178 172 173 172 170 168 162 156 150 143 139 135 132 129 128 127 126 124 124 124 122 120 118 116 115 114 111 108 105 101 98 95 92 90 86 83 79 76 72 68 63 59 55 51 47 45 43 40 38 37 34 32 30 28 26 24 23 21 18 17 15 13 12 10
189 178 186 203 185 195 207 190 222 246 117 126 142 227 199 179 175 319 339 18 14 33 108 51 156 167 159 153 159 171 183 190 188 180 180 178 176 174 170 167 162 156 152 146 140 137 133 131 130 129 128 128 127 125 123 120 118 116 114 111 108 105 101 98 95 92 90 86 82 78 74 71 66 61 56 51 47 43 41 38 36 34 31 29 26 24 22 21 19 18 16 14 11 9 8 6 3
180 49 212 229 212 174 149 101 143 87 65 185 179 235 226 171 97 45 339 275 192 171 149 142 166 163 152 157 173 183 190 192 188 185 184 181 179 178 174 173 168 162 158 152 146 142 139 136 134 133 133 133 131 129 126 123 120 117 114 110 107 104 100 98 95 92 87 82 77 72 68 64 59 53 48 44 39 36 35 32 30 28 25 23 21 19 18 16 15 15 12 10 8 5 4 2 360
151 181 198 218 350 100 127 125 73 81 264 230 171 223 231 162 227 167 152 231 189 175 172 167 173 169 170 182 187 189 193 191 188 186 184 182 182 183 182 179 175 170 164 159 153 148 145 142 141 139 137 136 135 132 129 126 123 120 116 112 108 104 100 97 92 88 82 77 72 67 62 57 52 46 40 36 32 28 26 24 22 20 18 17 15 14 13 11 12 11 8 6 4 2 1 359 355
150 188 189 143 18 356 168 200 117 154 248 251 181 217 208 181 210 156 165 218 206 188 173 167 176 180 189 197 191 191 194 189 186 184 185 187 186 186 186 184 181 176 168 163 158 153 150 148 147 145 143 141 140 137 134 131 127 124 121 117 112 107 102 97 92 87 82 77 72 66 59 53 47 40 35 31 27 23 20 17 16 14 11 10 9 8 7 6 6 5 3 1 359 357 358 355 351
192 213 170 114 211 203 171 192 183 189 236 253 194 211 219 203 193 162 189 213 202 180 170 177 189 192 197 200 193 193 193 186 186 188 188 189 188 188 188 188 186 179 173 167 163 159 155 154 152 149 148 146 144 141 139 136 134 131 127 122 117 111 106 101 96 91 84 77 70 61 54 46 40 34 29 25 23 19 16 14 11 9 7 6 4 3 2 1 2 1 360 358 355 354 354 352 348
36 184 162 295 261 209 170 175 193 205 226 253 220 204 212 204 183 171 190 205 188 168 175 194 199 199 199 196 192 192 192 190 191 189 188 187 188 191 191 190 187 181 176 172 168 164 161 159 156 153 152 150 148 146 144 143 141 137 132 128 124 118 113 107 100 92 82 72 64 54 46 38 31 26 21 19 17 14 11 9 6 4 3 1 1 0 360 0 0 359 357 355 353 352 352 349 345
166 179 178 185 180 26 247 191 116 234 229 231 255 261 210 162 169 177 183 193 176 167 182 198 199 200 201 199 196 192 189 191 189 182 183 184 186 192 193 191 187 183 181 177 173 170 166 163 160 158 157 155 153 153 152 150 148 144 140 137 134 129 120 113 105 94 81 69 58 47 38 30 23 18 15 13 11 8 6 4 2 0 359 358 359 358 357 358 357 355 352 351 350 349 347 344 341
185 190 184 181 165 151 202 209 167 300 265 222 248 276 238 133 153 186 154 151 174 178 188 193 195 199 202 203 200 192 188 188 184 176 178 182 187 190 190 187 187 186 185 183 180 176 173 169 165 164 163 161 161 160 160 158 155 153 152 149 146 140 132 127 118 102 82 65 53 41 32 24 18 13 10 8 4 2 1 359 357 356 355 354 354 353 353 352 351 350 348 347 346 344 342 340 338